Regional Weather Roundup
Issued by NWS

Home | Current Version | Previous Version | Graphics & Text | Print | Product List | Glossary On
Versions: 1 2 3 4 5 6 7 8 9 10 11 12 13 14 15 16 17 18 19 20 21 22 23 24 25 26 27
000
ASUS45 KCYS 181410
RWRWY

WYOMING REGIONAL WEATHER ROUNDUP
NATIONAL WEATHER SERVICE CHEYENNE WY
800 AM MDT FRI AUG 18 2017

NOTE:  "FAIR" INDICATES FEW OR NO CLOUDS BELOW 12,000 FEET
WITH NO SIGNIFICANT WEATHER AND/OR OBSTRUCTIONS TO VISIBILITY.

WYZ001-181500-
YELLOWSTONE NATIONAL PARK

CITY           SKY/WX    TMP DP  RH WIND       PRES   REMARKS
LK YELLOWSTONE   N/A     42  39  89 CALM      30.38S
W YELLOWSTONE  NOT AVBL

$$
WYZ002>013-054>058-071-098>099-181500-
NORTHERN WYOMING

CITY           SKY/WX    TMP DP  RH WIND       PRES   REMARKS
JACKSON        FAIR     N/A N/A N/A N3        30.33R
CODY           FAIR      63  40  42 VRB6      30.19R
GREYBULL       FAIR      55  40  56 CALM      30.13R
WORLAND        FAIR      53  46  77 CALM      30.14R
SHERIDAN       FAIR      63  46  54 S3        30.11R
BUFFALO        FAIR      70  34  26 W6        30.17R
GILLETTE       FAIR      68  41  37 SW6       30.11S
HULETT         FAIR      63  46  55 S3        30.13R
NEWCASTLE      FAIR      55  45  67 SE6       30.14R

$$
WYZ014>020-022>026-101>103-181500-
CENTRAL WYOMING

CITY           SKY/WX    TMP DP  RH WIND       PRES   REMARKS
BIG PINEY      FAIR      46  33  60 CALM      30.36R
PINEDALE       FAIR      43  34  70 NW3       30.36R
DUBOIS         FAIR      48  32  53 NW8       30.33S
LANDER           N/A    N/A N/A N/A MISG      30.23R
RIVERTON       FAIR      59  40  49 NW6       30.23R
CASPER         FAIR      58  45  62 SW7       30.21R
DOUGLAS        FAIR      54  49  83 NW6       30.20R

$$
WYZ021-027>030-104>119-181500-
SOUTHERN WYOMING

CITY           SKY/WX    TMP DP  RH WIND       PRES   REMARKS
EVANSTON       FAIR      55  34  45 S5        30.35R
KEMMERER         N/A     48  36  61 N6        30.36S
FORT BRIDGER   FAIR      63  32  31 CALM      30.37R
ROCK SPRINGS   FAIR      60  34  37 CALM      30.33R
RAWLINS        FAIR      54  37  52 CALM      30.33R
SARATOGA       FAIR      54  37  54 SE9       30.35R
LARAMIE        FAIR      54  40  59 CALM      30.34R
CHEYENNE       FAIR      58  43  57 W9        30.26R
TORRINGTON     FAIR      58  50  75 W3        30.15R
PINE BLUFFS    FAIR      54  46  76 CALM      30.21S

$$




USA.gov is the U.S. government's official web portal to all federal, state and local government web resources and services.